{"data":{"norad_id":52678,"intl_designator":"2022-053Y","name":"STARLINK-4074","alt_names":[],"object_type":"PAYLOAD","status":"ACTIVE","operator":null,"country":"US","launch_date":"2022-05-18","launch_site_code":"AFETR","launch_vehicle":null,"mission":null,"orbit_class":"UNKNOWN","rcs_meters":null,"size_class":null,"mass_kg":null,"dimensions":null,"purposes":["comms"],"wikipedia_slug":null,"has_3d_model":false,"image_url":null,"decayed_at":null,"tle_current":{"epoch":"2026-05-24T18:05:59.976960Z","epoch_age_seconds":106989,"freshness":"FRESH","line1":"1 52678U 22053Y   26144.75416640 -.00000339  00000+0 -32067-5 0  9999","line2":"2 52678  53.2119 162.7581 0000907  58.7174 301.3907 15.08834528222653","mean_motion":15.08834528,"eccentricity":9.07e-5,"inclination_deg":53.2119,"raan_deg":162.7581,"arg_perigee_deg":58.7174,"mean_anomaly_deg":301.3907,"bstar":-3.2067e-6,"rev_number":22265,"period_min":95.437900795441,"perigee_km":539.13266146124,"apogee_km":540.38756799785,"semimajor_km":6917.8971147295,"source":"CELESTRAK","updated_at":"2026-05-25T13:38:17.233870Z"}}}